{"data":{"norad_id":58081,"intl_designator":"2023-160G","name":"STARLINK-30602","alt_names":[],"object_type":"PAYLOAD","status":"ACTIVE","operator":null,"country":"US","launch_date":"2023-10-18","launch_site_code":"AFETR","launch_vehicle":null,"mission":null,"orbit_class":"UNKNOWN","rcs_meters":null,"size_class":null,"mass_kg":null,"dimensions":null,"purposes":["comms"],"wikipedia_slug":null,"has_3d_model":false,"image_url":null,"decayed_at":null,"tle_current":{"epoch":"2026-09-19T17:53:58.637184Z","epoch_age_seconds":205672,"freshness":"STALE","line1":"1 58081U 23160G   26262.74581756  .00012291  00000+0  45531-3 0  9990","line2":"2 58081  42.9995  65.4134 0001151 260.5596  99.5126 15.27588900162585","mean_motion":15.275889,"eccentricity":0.0001151,"inclination_deg":42.9995,"raan_deg":65.4134,"arg_perigee_deg":260.5596,"mean_anomaly_deg":99.5126,"bstar":0.00045531,"rev_number":16258,"period_min":94.266199499093,"perigee_km":482.23272691501,"apogee_km":483.81216581956,"semimajor_km":6861.1594463673,"source":"CELESTRAK","updated_at":"2026-09-21T09:00:33.782493Z"}}}